Вернуться в каталог

STARLINK-35821

АктивенСвязьVLEO
NORAD 66372·PAYLOAD·🇺🇸 United States

Запущен Nov 6, 2025 с Vandenberg Space Force Base

Loading…

Ближайшие Пролёты (ближайшие 24 часа)

TLE

СвежийSource: CelesTrak SupGP

Эпоха: Sep 15, 2026, 03:40 UTC

1 66372C 25254AA  26258.15326389 -.00025957  00000+0 -76702-3 0  2584
2 66372  53.1580  68.4295 0001206  91.8927  97.2531 15.34399277    15

Отслеживайте STARLINK-35821 в реальном времени с AllMySat

Download on the App Store